TimeEDT,TemperatureF,Dew PointF,Humidity,Sea Level PressureIn,VisibilityMPH,Wind Direction,Wind SpeedMPH,Gust SpeedMPH,PrecipitationIn,Events,Conditions,WindDirDegrees,DateUTC
12:15 AM,39.2,21.2,49,30.26,10.0,North,5.8,-,N/A,,Clear,10,2013-03-28 04:15:00
12:35 AM,39.2,23.0,52,30.26,10.0,NNW,5.8,-,N/A,,Clear,340,2013-03-28 04:35:00
12:55 AM,39.2,21.2,49,30.26,10.0,North,3.5,-,N/A,,Clear,10,2013-03-28 04:55:00
1:15 AM,39.2,21.2,49,30.27,10.0,North,3.5,-,N/A,,Clear,350,2013-03-28 05:15:00
1:35 AM,37.4,23.0,56,30.27,10.0,NNW,4.6,-,N/A,,Clear,330,2013-03-28 05:35:00
1:55 AM,35.6,21.2,56,30.26,10.0,North,3.5,-,N/A,,Clear,360,2013-03-28 05:55:00
2:15 AM,37.4,21.2,52,30.26,10.0,NNW,5.8,-,N/A,,Clear,340,2013-03-28 06:15:00
2:35 AM,35.6,21.2,56,30.26,10.0,NNW,5.8,-,N/A,,Clear,340,2013-03-28 06:35:00
2:55 AM,35.6,21.2,56,30.26,10.0,NNW,6.9,-,N/A,,Clear,340,2013-03-28 06:55:00
3:15 AM,35.6,21.2,56,30.26,10.0,North,5.8,-,N/A,,Clear,350,2013-03-28 07:15:00
3:35 AM,35.6,21.2,56,30.25,10.0,NNW,4.6,-,N/A,,Clear,340,2013-03-28 07:35:00
3:55 AM,35.6,19.4,52,30.25,10.0,Calm,Calm,-,N/A,,Clear,0,2013-03-28 07:55:00
4:15 AM,35.6,19.4,52,30.25,10.0,North,-9999.0,-,N/A,,Clear,0,2013-03-28 08:15:00
4:35 AM,35.6,19.4,52,30.25,10.0,NNW,3.5,-,N/A,,Clear,340,2013-03-28 08:35:00
4:55 AM,35.6,19.4,52,30.25,10.0,NNW,3.5,-,N/A,,Clear,340,2013-03-28 08:55:00
5:15 AM,33.8,21.2,60,30.25,10.0,Calm,Calm,-,N/A,,Clear,0,2013-03-28 09:15:00
5:35 AM,33.8,21.2,60,30.25,10.0,Calm,Calm,-,N/A,,Clear,0,2013-03-28 09:35:00
5:55 AM,30.2,21.2,69,30.26,10.0,Calm,Calm,-,N/A,,Clear,0,2013-03-28 09:55:00
6:15 AM,30.2,21.2,69,30.26,10.0,WNW,4.6,-,N/A,,Clear,300,2013-03-28 10:15:00
6:35 AM,30.2,21.2,69,30.27,10.0,NW,5.8,-,N/A,,Clear,310,2013-03-28 10:35:00
6:55 AM,30.2,21.2,69,30.28,10.0,NW,5.8,-,N/A,,Clear,310,2013-03-28 10:55:00
7:15 AM,30.2,21.2,69,30.28,10.0,NW,6.9,-,N/A,,Clear,320,2013-03-28 11:15:00
7:35 AM,32.0,21.2,64,30.28,10.0,NW,6.9,-,N/A,,Clear,310,2013-03-28 11:35:00
7:55 AM,33.8,21.2,60,30.29,10.0,NW,5.8,-,N/A,,Clear,310,2013-03-28 11:55:00
8:15 AM,35.6,23.0,60,30.30,10.0,NW,5.8,-,N/A,,Clear,320,2013-03-28 12:15:00
8:35 AM,37.4,23.0,56,30.30,10.0,NW,8.1,-,N/A,,Clear,310,2013-03-28 12:35:00
8:55 AM,39.2,23.0,52,30.31,10.0,NW,9.2,-,N/A,,Clear,320,2013-03-28 12:55:00
9:15 AM,42.8,24.8,49,30.31,10.0,NW,8.1,-,N/A,,Clear,320,2013-03-28 13:15:00
9:35 AM,44.6,24.8,46,30.31,10.0,NNW,12.7,16.1,N/A,,Clear,340,2013-03-28 13:35:00
9:55 AM,46.4,21.2,37,30.32,10.0,North,16.1,20.7,N/A,,Clear,350,2013-03-28 13:55:00
10:15 AM,48.2,21.2,34,30.31,10.0,NNW,12.7,-,N/A,,Clear,340,2013-03-28 14:15:00
10:35 AM,48.2,23.0,37,30.31,10.0,NW,15.0,20.7,N/A,,Clear,310,2013-03-28 14:35:00
10:55 AM,48.2,21.2,34,30.31,10.0,NW,13.8,18.4,N/A,,Clear,320,2013-03-28 14:55:00
11:15 AM,50.0,21.2,32,30.31,10.0,NNW,10.4,19.6,N/A,,Clear,330,2013-03-28 15:15:00
11:35 AM,51.8,21.2,30,30.30,10.0,North,15.0,21.9,N/A,,Clear,10,2013-03-28 15:35:00
11:55 AM,51.8,21.2,30,30.30,10.0,NW,11.5,19.6,N/A,,Clear,310,2013-03-28 15:55:00
12:15 PM,51.8,21.2,30,30.29,10.0,NW,12.7,16.1,N/A,,Clear,310,2013-03-28 16:15:00
12:35 PM,53.6,21.2,28,30.28,10.0,NW,15.0,20.7,N/A,,Clear,320,2013-03-28 16:35:00
12:55 PM,53.6,21.2,28,30.28,10.0,North,13.8,23.0,N/A,,Clear,350,2013-03-28 16:55:00
1:15 PM,53.6,21.2,28,30.27,10.0,North,15.0,20.7,N/A,,Clear,360,2013-03-28 17:15:00
1:35 PM,53.6,21.2,28,30.27,10.0,WNW,8.1,19.6,N/A,,Clear,300,2013-03-28 17:35:00
1:55 PM,55.4,21.2,26,30.26,10.0,NW,12.7,19.6,N/A,,Clear,320,2013-03-28 17:55:00
2:15 PM,55.4,23.0,29,30.25,10.0,West,11.5,17.3,N/A,,Clear,280,2013-03-28 18:15:00
2:35 PM,55.4,21.2,26,30.24,10.0,NNW,8.1,-,N/A,,Clear,340,2013-03-28 18:35:00
2:55 PM,57.2,21.2,25,30.24,10.0,NW,12.7,-,N/A,,Clear,310,2013-03-28 18:55:00
3:15 PM,57.2,21.2,25,30.23,10.0,NW,15.0,19.6,N/A,,Clear,310,2013-03-28 19:15:00
3:35 PM,57.2,21.2,25,30.22,10.0,NW,9.2,16.1,N/A,,Clear,310,2013-03-28 19:35:00
3:55 PM,57.2,21.2,25,30.21,10.0,NW,10.4,17.3,N/A,,Clear,310,2013-03-28 19:55:00
4:15 PM,59.0,21.2,23,30.21,10.0,WNW,10.4,18.4,N/A,,Clear,300,2013-03-28 20:15:00
4:35 PM,57.2,21.2,25,30.21,10.0,NW,13.8,20.7,N/A,,Clear,310,2013-03-28 20:35:00
4:55 PM,57.2,21.2,25,30.21,10.0,NNW,11.5,16.1,N/A,,Clear,340,2013-03-28 20:55:00
5:15 PM,57.2,19.4,23,30.21,10.0,NW,9.2,19.6,N/A,,Clear,310,2013-03-28 21:15:00
5:35 PM,57.2,21.2,25,30.21,10.0,NW,9.2,16.1,N/A,,Clear,310,2013-03-28 21:35:00
5:55 PM,57.2,21.2,25,30.21,10.0,NNW,15.0,19.6,N/A,,Clear,330,2013-03-28 21:55:00
6:15 PM,57.2,21.2,25,30.21,10.0,NW,13.8,-,N/A,,Clear,320,2013-03-28 22:15:00
6:35 PM,57.2,19.4,23,30.21,10.0,WNW,12.7,19.6,N/A,,Clear,300,2013-03-28 22:35:00
6:55 PM,57.2,21.2,25,30.22,10.0,NNW,6.9,-,N/A,,Clear,330,2013-03-28 22:55:00
7:15 PM,55.4,21.2,26,30.23,10.0,NW,8.1,-,N/A,,Clear,320,2013-03-28 23:15:00
7:35 PM,53.6,21.2,28,30.23,10.0,NNW,5.8,-,N/A,,Clear,340,2013-03-28 23:35:00
7:55 PM,51.8,21.2,30,30.24,10.0,NNW,3.5,-,N/A,,Clear,330,2013-03-28 23:55:00
8:15 PM,48.2,24.8,40,30.24,10.0,NW,3.5,-,N/A,,Clear,310,2013-03-29 00:15:00
8:35 PM,46.4,26.6,46,30.25,10.0,Calm,Calm,-,N/A,,Clear,0,2013-03-29 00:35:00
8:55 PM,44.6,26.6,49,30.26,10.0,Calm,Calm,-,N/A,,Clear,0,2013-03-29 00:55:00
9:15 PM,42.8,28.4,57,30.26,10.0,Calm,Calm,-,N/A,,Clear,0,2013-03-29 01:15:00
9:35 PM,42.8,28.4,57,30.27,10.0,Calm,Calm,-,N/A,,Clear,0,2013-03-29 01:35:00
9:55 PM,42.8,24.8,49,30.27,10.0,Calm,Calm,-,N/A,,Clear,0,2013-03-29 01:55:00
10:15 PM,41.0,28.4,61,30.28,10.0,Calm,Calm,-,N/A,,Clear,0,2013-03-29 02:15:00
10:35 PM,39.2,28.4,65,30.29,10.0,Calm,Calm,-,N/A,,Clear,0,2013-03-29 02:35:00
10:55 PM,37.4,28.4,70,30.29,10.0,WNW,3.5,-,N/A,,Clear,300,2013-03-29 02:55:00
11:15 PM,37.4,28.4,70,30.30,10.0,NW,3.5,-,N/A,,Clear,320,2013-03-29 03:15:00
11:35 PM,37.4,26.6,65,30.30,10.0,Calm,Calm,-,N/A,,Clear,0,2013-03-29 03:35:00
11:55 PM,37.4,28.4,70,30.30,10.0,NNW,4.6,-,N/A,,Clear,330,2013-03-29 03:55:00